Temp
63 63 65 63 62 61 60 59 59 59 59 60 60 61 61 60 60 60 59 61 63 63 64 63 61 62 61 61 61 62 61 61 58 60 62 63 61 62 62 63 64 63 61
64 64 66 64 62 61 60 60 60 60 60 60 61 61 61 61 61 61 61 63 63 62 62 63 62 63 61 62 61 61 61 61 61 59 60 61 61 62 62 62 63 65 61
65 64 64 63 62 61 60 60 60 60 60 62 61 61 62 62 61 61 61 60 62 63 63 63 63 63 61 61 61 61 61 62 61 60 59 60 60 61 59 59 59 57 62
64 63 62 63 63 62 61 60 60 61 61 61 62 63 63 62 62 62 61 59 59 61 62 63 64 63 62 62 62 61 61 61 61 60 59 58 58 58 57 57 56 57 56
64 63 63 63 63 64 62 62 61 61 62 63 63 63 63 62 63 62 62 62 61 59 60 62 61 62 61 61 62 61 61 60 60 57 56 56 56 55 54 54 54 54 56
63 63 64 64 68 65 64 62 63 61 61 62 62 62 61 62 52 54 61 62 61 61 60 61 61 60 59 57 58 57 59 60 58 57 55 55 54 55 55 55 54 54 54
63 64 65 65 68 63 64 62 61 60 58 59 59 60 58 58 51 52 55 62 61 61 61 61 63 64 61 62 55 55 55 55 59 59 56 56 56 57 56 54 54 54 54
64 65 66 66 68 64 62 61 59 58 58 57 57 58 57 58 49 50 54 63 61 61 61 61 62 61 61 61 60 60 59 58 59 63 59 58 58 58 58 58 56 55 56
66 65 66 66 64 64 61 58 59 57 56 57 58 58 59 57 48 49 58 61 61 59 61 61 61 59 51 50 60 58 56 56 53 50 54 53 50 50 54 58 56 54 52
67 68 67 66 64 63 61 60 59 58 58 59 58 58 56 57 48 50 57 62 58 57 57 58 53 57 46 48 59 59 57 56 56 56 54 51 50 50 52 56 54 52 49
70 70 67 65 64 63 61 60 60 59 59 57 58 56 58 57 53 48 52 60 60 57 57 56 54 46 47 47 51 57 56 55 54 56 55 54 54 53 53 52 53 54 51
69 70 68 64 70 65 63 60 61 59 57 56 55 54 55 56 51 49 49 52 53 59 57 56 51 45 45 45 51 45 46 51 55 54 53 52 53 52 52 52 53 53 54
67 68 66 65 66 65 65 60 58 59 57 56 56 54 55 55 51 46 46 48 50 57 57 54 45 43 44 45 44 44 49 54 53 52 51 50 50 51 51 52 51 53 55
67 66 65 65 63 65 67 65 63 57 57 57 56 55 55 54 50 47 50 50 48 52 49 46 46 46 46 47 50 50 53 52 52 52 49 49 50 50 49 49 47 49 52
67 66 65 66 65 64 65 64 65 63 63 59 59 61 56 53 54 49 49 52 51 50 47 47 47 47 48 49 50 50 49 50 52 49 50 49 49 49 49 49 49 48 49
67 66 67 65 64 65 61 54 44 48 49 50 50 57 59 56 48 46 45 46 44 45 50 49 48 48 49 49 50 50 50 50 49 51 48 48 49 51 52 48 50 48 44
70 67 67 65 66 64 63 62 58 51 45 47 46 48 50 54 45 45 45 43 43 46 52 50 51 51 52 49 50 50 49 50 49 50 49 47 48 48 47 46 49 49 44
69 58 68 67 67 66 65 64 64 60 57 54 45 47 44 46 45 44 43 44 46 48 52 53 54 53 51 51 50 49 51 48 47 48 47 47 48 51 49 49 48 45 42
69 68 70 69 68 65 66 64 63 61 60 55 50 46 41 40 40 41 43 61 57 57 55 55 53 52 51 50 50 51 51 50 49 47 46 48 51 50 45 47 45 39 39
71 61 64 69 66 66 66 64 61 61 60 59 55 56 45 46 47 46 50 59 59 61 61 60 51 52 51 52 51 50 48 46 48 49 50 51 50 47 47 45 42 41 39
73 66 62 68 68 67 66 65 65 63 62 61 60 56 44 56 54 54 53 57 60 61 61 57 52 51 52 52 52 52 51 50 50 50 49 47 48 46 45 43 43 42 40
74 68 68 69 69 68 67 66 65 65 64 63 62 54 41 58 58 56 57 61 61 59 55 55 52 52 54 54 53 52 51 50 49 50 50 49 48 46 44 43 41 38 37
73 69 69 70 70 61 61 66 65 66 64 62 63 57 51 56 59 59 58 59 53 53 54 54 54 54 54 54 54 54 52 51 53 52 50 47 47 46 45 41 39 36 34
72 70 68 69 68 66 66 59 64 57 65 64 59 55 54 57 59 58 56 56 57 54 54 54 53 53 51 50 50 53 52 53 52 52 51 48 46 43 42 40 38 35 34
65 65 65 67 66 63 64 60 60 57 58 58 57 56 56 57 59 54 54 55 54 53 50 52 51 49 48 49 48 46 38 39 49 43 48 48 46 44 42 39 37 35 33
63 63 62 60 60 60 59 60 60 60 61 56 56 56 55 57 54 52 52 52 51 50 50 49 48 48 47 47 46 39 38 38 39 39 47 47 44 42 41 38 36 34 32
MSLP
1007.52 1007.65 1007.79 1007.98 1008.23 1008.62 1008.83 1008.90 1008.93 1009.19 1009.36 1009.38 1009.51 1009.79 1009.98 1010.15 1010.40 1010.47 1010.94 1011.04 1011.19 1011.52 1011.82 1012.02 1012.44 1012.71 1013.15 1013.79 1014.15 1014.74 1015.52 1016.19 1017.06 1017.76 1018.14 1018.85 1019.47 1019.85 1020.27 1020.49 1020.57 1020.86 1021.16
1007.38 1007.58 1007.68 1007.91 1008.36 1008.63 1008.76 1008.77 1008.97 1009.16 1009.45 1009.50 1009.60 1009.82 1010.18 1010.45 1010.63 1010.91 1011.24 1011.70 1011.86 1012.10 1012.36 1012.55 1012.89 1013.26 1013.80 1014.30 1014.65 1015.40 1015.78 1016.61 1016.98 1017.89 1018.80 1019.28 1019.72 1020.15 1020.43 1020.70 1020.74 1020.84 1021.10
1007.38 1007.63 1007.89 1008.03 1008.39 1008.64 1008.80 1008.84 1009.06 1009.24 1009.50 1009.70 1009.82 1009.99 1010.25 1010.66 1010.99 1011.25 1011.49 1011.91 1012.22 1012.44 1012.67 1012.93 1013.25 1013.70 1014.30 1014.69 1015.11 1015.81 1016.54 1016.90 1017.26 1018.13 1019.02 1019.39 1020.01 1020.36 1020.79 1020.71 1020.87 1021.18 1020.98
1007.39 1007.75 1007.99 1008.08 1008.30 1008.63 1008.86 1008.98 1009.19 1009.42 1009.61 1009.81 1010.07 1010.24 1010.51 1010.84 1011.21 1011.62 1011.97 1012.38 1012.80 1013.10 1013.17 1013.35 1013.67 1014.03 1014.40 1015.02 1015.61 1016.18 1016.62 1017.24 1017.88 1018.46 1019.06 1019.70 1019.94 1020.17 1020.46 1020.89 1021.39 1021.18 1021.36
1007.37 1007.78 1008.01 1008.12 1008.29 1008.57 1008.98 1009.12 1009.33 1009.63 1009.73 1009.83 1010.19 1010.52 1010.84 1011.13 1011.56 1011.85 1012.21 1012.58 1012.90 1013.44 1013.78 1014.04 1014.20 1014.46 1014.88 1015.36 1015.77 1016.38 1016.97 1017.52 1018.11 1018.69 1019.23 1019.57 1019.85 1020.26 1020.62 1020.76 1020.91 1021.09 1021.16
1007.25 1007.69 1007.87 1008.08 1008.41 1008.61 1008.99 1009.39 1009.60 1009.93 1010.06 1010.12 1010.34 1010.72 1011.08 1011.36 1011.83 1012.19 1012.47 1012.87 1013.18 1013.58 1014.04 1014.43 1014.78 1015.07 1015.43 1015.76 1016.24 1016.77 1017.15 1017.50 1018.10 1018.68 1019.18 1019.50 1019.71 1019.91 1020.29 1020.53 1020.65 1021.18 1021.30
1007.09 1007.51 1007.78 1008.07 1008.19 1008.68 1009.04 1009.56 1009.89 1010.29 1010.48 1010.61 1010.86 1011.09 1011.50 1011.72 1012.13 1012.56 1012.90 1013.28 1013.50 1013.87 1014.24 1014.64 1015.09 1015.62 1015.91 1016.39 1016.86 1017.10 1017.32 1017.40 1017.33 1017.72 1018.35 1018.67 1019.05 1019.23 1019.71 1020.23 1020.53 1021.00 1021.12
1006.92 1007.32 1007.64 1008.01 1008.30 1008.77 1009.28 1009.79 1010.20 1010.50 1010.84 1011.12 1011.40 1011.54 1011.79 1012.11 1012.36 1012.69 1013.17 1013.58 1013.98 1014.38 1014.70 1015.03 1015.32 1015.83 1016.26 1016.72 1017.06 1017.20 1017.21 1017.35 1017.53 1017.62 1017.70 1017.94 1018.25 1018.80 1019.21 1019.44 1020.00 1020.68 1021.12
1006.62 1006.99 1007.41 1007.89 1008.36 1008.86 1009.32 1009.75 1010.30 1010.82 1011.18 1011.38 1011.54 1011.88 1012.17 1012.49 1012.66 1012.86 1013.32 1013.78 1014.30 1014.71 1015.05 1015.38 1015.65 1016.12 1016.41 1016.68 1017.04 1017.52 1017.52 1017.62 1017.59 1017.49 1017.31 1017.69 1018.08 1018.34 1018.64 1019.23 1020.02 1020.91 1021.67
1006.16 1006.56 1007.05 1007.61 1008.22 1008.73 1009.27 1009.69 1010.15 1010.62 1011.14 1011.48 1011.91 1011.96 1012.22 1012.67 1012.82 1013.07 1013.35 1013.88 1014.59 1014.94 1015.22 1015.43 1015.64 1015.89 1016.35 1016.79 1016.91 1017.33 1017.70 1017.79 1017.86 1018.06 1018.28 1018.64 1018.85 1019.06 1018.86 1018.92 1019.93 1021.05 1021.62
1005.37 1006.14 1006.73 1007.25 1007.89 1008.42 1009.10 1009.55 1010.09 1010.65 1011.16 1011.58 1011.97 1012.21 1012.39 1012.67 1013.12 1013.23 1013.47 1013.91 1014.44 1015.00 1015.34 1015.82 1016.02 1016.01 1016.33 1016.68 1016.86 1017.15 1017.55 1017.85 1018.17 1018.24 1018.44 1018.81 1019.18 1019.51 1019.72 1019.80 1019.87 1020.15 1020.91
1004.84 1005.64 1006.42 1006.91 1007.33 1008.16 1008.78 1009.39 1009.88 1010.56 1011.16 1011.71 1012.14 1012.47 1012.63 1012.84 1013.01 1013.30 1013.55 1013.67 1014.24 1014.82 1015.41 1015.67 1016.07 1016.34 1016.40 1016.63 1017.02 1017.32 1017.56 1017.71 1017.90 1018.46 1018.92 1019.38 1019.57 1019.95 1020.31 1020.37 1020.62 1020.88 1021.00
1004.34 1005.05 1005.84 1006.56 1007.12 1007.71 1008.47 1009.23 1009.84 1010.27 1011.02 1011.76 1012.26 1012.62 1012.74 1013.02 1013.32 1013.43 1013.56 1013.84 1014.16 1014.63 1014.92 1015.31 1015.87 1016.32 1016.54 1016.92 1017.10 1017.35 1017.49 1018.00 1018.65 1019.08 1019.52 1020.13 1020.29 1020.49 1020.53 1020.67 1020.91 1021.11 1021.36
1003.95 1004.62 1005.38 1006.18 1006.94 1007.45 1008.05 1008.68 1009.42 1009.98 1010.51 1011.25 1011.89 1012.39 1012.60 1013.05 1013.64 1013.85 1013.96 1014.15 1014.37 1014.72 1015.17 1015.77 1016.27 1016.76 1016.99 1017.18 1017.53 1017.75 1017.87 1018.19 1018.63 1019.33 1020.06 1020.30 1020.26 1020.38 1020.90 1021.14 1021.50 1021.50 1022.04
1003.32 1004.11 1004.92 1005.63 1006.34 1007.17 1007.75 1008.33 1008.68 1009.04 1009.31 1010.19 1010.82 1011.32 1012.04 1012.69 1012.91 1013.21 1013.68 1014.21 1014.35 1014.71 1015.53 1016.19 1016.85 1017.20 1017.39 1017.58 1017.77 1018.03 1018.33 1018.71 1019.15 1019.58 1019.84 1020.32 1020.90 1021.40 1021.70 1021.54 1021.77 1022.21 1022.89
1002.79 1003.56 1004.26 1005.14 1005.94 1006.70 1007.56 1008.58 1008.77 1008.62 1008.94 1009.23 1009.67 1010.33 1011.07 1011.20 1011.80 1012.56 1013.13 1013.50 1013.98 1014.45 1015.26 1015.89 1016.49 1016.75 1016.98 1017.28 1017.78 1018.31 1018.43 1018.61 1019.03 1019.39 1020.10 1020.63 1021.13 1021.17 1021.21 1021.67 1021.99 1022.44 1023.32
1001.68 1002.73 1003.67 1004.52 1005.25 1006.11 1006.98 1007.75 1008.55 1009.16 1009.13 1009.25 1009.60 1009.81 1010.13 1010.56 1011.25 1011.71 1012.40 1013.03 1013.45 1014.14 1014.53 1015.18 1015.53 1015.93 1016.26 1016.84 1017.41 1017.78 1018.28 1018.64 1018.97 1019.62 1020.10 1020.46 1020.66 1021.17 1021.99 1022.45 1022.10 1022.54 1023.21
1000.93 1001.75 1002.76 1003.70 1004.51 1005.19 1005.93 1006.67 1007.41 1008.33 1008.95 1009.44 1009.58 1009.74 1010.01 1010.14 1010.51 1011.11 1011.94 1013.20 1014.17 1014.01 1013.97 1014.36 1014.78 1015.16 1015.63 1016.09 1016.63 1017.27 1017.96 1018.72 1019.23 1019.54 1019.89 1020.25 1020.78 1021.31 1021.35 1021.91 1022.94 1023.38 1023.60
1000.35 1001.30 1001.86 1002.75 1003.55 1004.25 1004.99 1005.84 1006.55 1007.34 1007.95 1008.65 1009.40 1009.80 1010.01 1010.22 1010.82 1011.34 1011.65 1012.07 1012.83 1013.19 1013.17 1013.41 1013.80 1014.30 1014.94 1015.53 1016.19 1016.85 1017.35 1018.12 1018.73 1019.23 1019.72 1020.28 1020.80 1020.80 1021.59 1022.98 1023.33 1023.88 1024.02
999.63 1000.25 1001.08 1002.03 1002.99 1003.71 1004.34 1005.04 1005.90 1006.50 1007.16 1007.76 1008.54 1009.05 1009.86 1010.32 1010.85 1011.28 1011.63 1011.36 1011.62 1011.84 1012.20 1012.75 1013.09 1013.45 1014.19 1014.83 1015.56 1016.32 1017.16 1017.93 1018.45 1018.89 1019.41 1019.84 1020.06 1020.98 1021.99 1022.18 1023.45 1024.03 1024.20
998.86 999.94 1000.43 1001.45 1002.23 1002.84 1003.52 1004.18 1004.71 1005.47 1006.11 1006.74 1007.28 1007.84 1008.20 1008.89 1009.28 1009.71 1010.12 1010.33 1010.34 1010.48 1010.71 1011.36 1012.13 1012.70 1013.36 1014.15 1014.89 1015.64 1016.48 1017.34 1017.99 1018.65 1019.42 1020.29 1020.92 1021.56 1021.60 1023.02 1023.61 1023.65 1023.99
998.18 999.18 1000.05 1000.51 1001.34 1002.17 1002.67 1003.22 1003.79 1004.40 1005.05 1005.71 1006.29 1007.11 1007.63 1008.05 1008.16 1008.33 1008.53 1008.57 1008.64 1009.41 1010.17 1010.88 1011.62 1012.34 1012.80 1013.33 1014.04 1015.02 1015.85 1016.67 1017.50 1018.21 1019.23 1019.67 1019.68 1020.02 1021.94 1023.18 1023.57 1023.95 1024.57
997.56 998.57 999.41 1000.06 1000.55 1001.10 1001.99 1002.42 1002.99 1003.54 1004.16 1004.79 1005.37 1006.33 1007.32 1007.49 1007.28 1007.33 1007.39 1007.65 1008.35 1008.91 1009.41 1010.09 1010.96 1011.75 1012.28 1013.36 1013.91 1014.20 1014.90 1015.78 1016.51 1017.37 1018.76 1018.74 1021.07 1021.67 1021.89 1022.72 1023.42 1024.27 1025.02
997.16 997.87 998.70 999.31 999.93 1000.53 1001.10 1001.80 1002.04 1002.45 1003.03 1003.67 1004.37 1005.18 1005.88 1006.12 1006.29 1006.35 1006.79 1007.25 1007.52 1007.49 1008.29 1009.13 1010.25 1011.30 1012.28 1013.28 1014.79 1014.84 1015.63 1016.38 1016.95 1017.81 1018.16 1019.41 1020.98 1021.31 1022.02 1022.69 1023.50 1024.31 1025.08
997.18 997.83 998.37 998.80 999.37 1000.06 1000.55 1001.13 1001.62 1002.04 1002.43 1002.80 1003.45 1004.11 1004.58 1005.02 1005.42 1005.82 1006.14 1006.60 1007.36 1008.09 1008.78 1009.41 1010.11 1010.76 1012.01 1012.92 1013.80 1015.30 1016.37 1017.36 1017.93 1018.27 1018.42 1019.78 1020.69 1021.44 1021.93 1022.84 1023.74 1024.30 1025.02
997.11 997.47 998.01 998.63 999.18 999.70 1000.20 1000.68 1001.13 1001.41 1001.67 1001.99 1002.34 1002.79 1003.29 1003.70 1004.31 1004.95 1005.79 1006.61 1007.23 1008.09 1009.09 1009.81 1010.39 1011.02 1011.93 1012.64 1013.75 1014.70 1015.78 1017.56 1018.58 1019.03 1019.52 1019.78 1020.69 1021.31 1021.92 1022.89 1023.70 1024.39 1025.26
Wind_Speed
5 4 5 5 5 5 4 4 5 4 4 4 5 5 5 6 6 7 6 6 9 8 8 8 9 9 8 7 7 8 8 6 8 4 3 4 4 6 4 2 3 4 3
5 4 5 6 5 6 5 5 4 5 4 5 5 5 6 6 6 7 8 10 10 8 6 9 9 8 9 8 7 8 8 6 8 10 3 2 3 4 5 5 3 2 3
5 6 5 6 6 6 5 5 5 6 6 6 5 5 6 7 8 6 7 8 9 8 6 8 9 11 10 8 8 8 7 7 7 5 4 2 2 2 2 1 1 3 2
7 6 7 6 6 5 5 5 6 5 6 6 5 5 5 6 7 7 7 6 6 6 5 7 8 10 11 10 9 8 7 8 7 4 3 3 2 2 2 3 3 1 2
7 7 7 6 5 6 6 5 6 5 5 5 6 6 6 6 6 8 7 7 6 7 6 6 5 7 10 9 8 7 8 5 5 3 2 2 3 2 4 3 2 1 2
8 7 7 4 6 6 7 6 6 5 4 5 6 6 5 4 12 10 8 7 5 6 7 6 8 12 11 12 8 6 5 7 6 4 3 3 3 3 3 3 3 2 1
8 7 7 5 6 7 7 5 7 6 5 6 6 6 5 6 13 14 12 5 4 6 6 7 8 6 8 7 5 8 9 10 8 6 6 5 4 6 5 3 3 4 3
8 8 7 6 6 7 7 7 5 5 6 5 6 6 6 3 8 13 13 10 6 5 6 6 7 9 7 7 6 4 2 4 6 5 7 7 6 7 6 5 6 3 1
11 9 7 7 6 7 7 8 6 6 4 4 5 7 7 3 7 11 10 7 7 6 5 5 7 7 9 11 7 6 6 4 3 4 9 8 6 5 5 5 4 4 1
12 12 8 8 7 8 8 8 5 5 6 5 5 5 8 5 6 10 8 5 5 4 3 4 9 9 12 10 8 7 6 3 3 2 3 5 5 6 8 5 5 3 3
14 12 9 8 9 8 7 5 7 6 6 6 6 4 6 6 5 10 11 5 6 5 5 4 3 6 11 12 9 6 5 5 3 4 3 4 4 5 4 4 4 5 4
13 13 11 9 9 7 10 5 6 7 7 6 5 4 2 4 6 8 11 10 7 7 6 4 5 8 11 11 8 10 11 7 5 5 5 4 5 4 4 5 6 6 5
11 13 12 10 8 10 11 7 5 6 6 5 5 4 4 3 3 6 9 11 10 5 4 7 12 9 12 9 9 10 9 5 5 5 5 3 3 4 4 5 6 7 7
12 11 10 11 9 10 9 9 8 6 5 5 5 6 4 4 4 3 3 3 6 5 7 6 5 6 6 6 5 4 4 4 5 6 4 3 2 4 4 2 3 3 4
11 10 11 10 12 10 9 9 10 9 10 7 7 8 7 5 6 10 9 5 5 5 8 4 3 2 3 3 2 3 3 3 5 4 5 5 4 3 2 2 3 3 4
11 10 10 10 9 10 9 4 9 2 11 11 13 9 5 10 15 16 14 11 13 16 4 4 4 4 6 5 5 4 2 5 5 6 4 5 5 6 7 3 3 4 5
14 11 9 10 10 10 9 9 8 3 5 6 9 13 13 13 15 18 18 14 17 9 4 5 6 7 6 5 5 5 5 5 6 6 7 5 6 5 5 2 5 6 6
12 16 12 11 10 10 10 10 8 8 7 3 1 4 11 13 17 18 16 12 3 2 3 6 6 6 5 6 5 5 6 6 5 6 6 6 5 6 7 7 4 5 4
12 11 12 11 11 11 10 9 9 8 7 5 3 2 6 8 8 6 21 10 10 9 7 6 5 6 5 6 6 6 10 9 8 7 6 6 7 9 7 6 6 5 5
12 15 13 11 9 10 9 10 8 8 8 7 6 7 5 4 4 6 9 9 10 10 10 9 6 6 7 8 9 10 9 9 8 8 8 8 8 7 7 8 5 4 2
10 10 14 11 11 12 11 10 10 10 9 8 9 9 13 8 8 10 11 11 10 11 10 9 7 8 8 9 10 11 12 10 9 9 8 6 6 7 8 5 4 4 5
10 11 11 12 11 10 11 10 10 10 10 9 8 6 12 8 7 9 11 13 13 9 6 8 8 8 9 12 13 13 12 11 10 10 8 8 10 11 7 5 5 5 5
10 11 12 10 11 12 9 10 10 10 9 10 9 7 8 10 8 9 10 9 6 7 8 9 9 9 10 8 8 10 13 13 13 12 11 13 6 5 7 6 8 6 5
10 11 12 11 9 10 10 10 10 11 11 10 9 8 9 10 10 10 8 7 9 10 11 11 10 13 11 9 4 7 7 8 9 9 13 10 6 8 7 8 8 8 6
6 6 7 10 9 8 8 8 8 7 7 7 7 8 11 11 10 7 7 8 8 8 7 10 9 16 17 18 15 13 11 9 8 9 10 9 11 10 10 9 8 8 7
5 6 6 5 5 5 5 6 9 10 11 8 7 8 9 10 8 8 7 8 9 9 10 8 12 19 21 20 21 20 18 13 9 10 7 9 9 8 9 10 11 8 7
Wind_Direction
201 163 178 146 148 147 152 159 154 145 151 149 147 140 139 124 123 97 83 89 101 99 115 117 108 108 105 97 97 109 110 111 125 92 94 101 85 123 142 176 170 189 195
172 146 142 130 137 140 154 163 147 154 145 144 135 127 119 117 110 115 109 115 118 113 106 122 118 110 102 108 106 110 103 119 124 118 100 105 107 166 182 180 181 173 203
161 123 134 133 134 136 140 144 129 132 134 127 125 124 124 124 117 116 115 111 126 134 125 130 129 124 118 117 107 109 121 116 110 119 122 97 104 164 149 83 168 233 219
151 128 138 164 148 137 132 133 134 134 128 130 135 130 122 122 124 118 117 111 106 117 106 122 137 134 129 126 117 117 114 111 125 127 125 135 152 112 112 157 232 158 267
146 139 162 180 136 140 138 139 131 133 137 143 137 127 129 132 131 131 126 122 124 113 102 117 109 114 122 121 126 128 129 139 151 145 115 116 150 154 189 196 161 81 274
151 159 171 175 157 169 136 140 124 134 127 120 127 128 122 126 137 117 124 117 127 127 112 102 118 117 110 121 121 139 153 151 155 147 153 177 195 186 164 174 148 101 333
157 166 163 157 142 164 141 142 130 120 110 120 127 122 113 130 137 130 123 130 110 111 114 127 132 141 141 160 165 196 190 203 181 150 169 186 172 200 159 166 154 179 190
163 168 168 155 153 132 136 156 128 128 133 127 125 120 121 133 151 145 144 153 143 144 150 150 141 163 182 154 176 197 179 169 174 197 186 184 202 172 183 172 166 154 14
171 170 175 160 162 133 132 141 135 125 124 130 132 128 124 108 176 155 135 132 138 151 158 164 150 162 184 174 154 135 101 87 40 38 156 163 183 157 138 121 108 91 39
173 177 174 163 160 154 151 144 150 145 147 141 144 141 132 120 148 156 132 130 130 133 134 162 162 156 163 172 143 143 125 163 146 81 40 36 57 70 70 77 138 130 129
174 175 171 171 164 164 161 147 142 145 139 145 152 164 141 135 111 135 140 142 147 148 148 151 134 143 147 166 157 150 163 148 125 114 75 79 85 85 89 104 114 123 121
165 172 178 178 170 162 161 160 151 136 143 160 157 167 196 159 153 120 144 136 144 145 168 163 150 165 128 131 126 131 125 112 80 66 72 62 84 88 74 68 66 75 71
163 172 176 173 165 161 165 163 149 158 147 163 170 184 197 179 161 149 137 147 161 143 162 160 145 135 111 87 105 122 106 99 108 99 105 83 68 118 122 87 68 74 69
173 171 165 165 164 166 173 168 169 171 163 160 171 183 196 171 171 182 168 139 135 103 102 105 125 119 85 116 110 93 101 114 136 127 114 120 111 63 71 65 88 90 91
170 168 167 169 171 170 173 175 180 194 181 174 185 181 175 190 205 178 171 178 178 148 112 97 109 115 136 158 106 110 103 119 121 122 121 106 97 113 115 113 92 76 75
168 168 171 168 169 170 161 136 34 143 189 181 169 168 202 196 165 177 183 173 150 148 109 143 178 178 184 177 160 140 126 124 129 127 121 137 141 129 108 87 104 109 112
175 168 165 168 169 165 172 174 175 32 89 199 200 194 183 190 184 177 182 172 162 144 143 175 180 183 192 165 174 158 148 162 141 142 142 138 121 104 98 128 114 100 94
172 164 167 172 174 172 176 180 177 182 188 198 100 199 218 203 188 186 167 119 127 282 165 178 194 186 171 168 164 153 150 137 135 139 132 130 117 130 132 122 89 100 107
166 173 172 175 176 176 175 176 179 183 190 168 137 113 75 85 99 127 159 181 187 202 206 197 182 173 166 157 153 147 148 150 152 143 129 126 137 133 121 88 87 100 114
179 174 171 173 170 176 178 177 180 187 192 189 188 197 139 123 154 165 189 199 194 201 203 205 184 163 158 157 152 150 144 150 148 141 142 143 133 133 120 115 128 129 117
177 172 169 169 179 185 184 188 189 188 193 196 203 188 179 175 183 183 187 201 204 206 204 186 168 162 159 158 156 156 155 152 147 139 128 97 101 109 102 118 136 107 91
177 171 178 180 182 188 192 189 191 190 196 198 208 189 181 203 184 188 195 202 200 195 172 165 157 168 167 165 163 160 156 150 145 141 128 130 150 129 130 146 108 94 92
172 171 183 187 188 185 187 190 191 194 190 204 204 175 178 207 204 201 200 195 169 164 160 159 160 159 157 162 164 161 155 155 151 145 145 134 134 119 129 126 118 102 91
174 177 180 187 185 192 190 188 195 193 195 195 194 177 187 202 206 199 191 183 185 167 161 155 152 145 130 115 90 123 127 135 133 138 120 112 122 129 125 114 114 117 112
150 157 175 185 188 188 186 189 192 179 185 187 178 179 193 202 206 189 170 166 154 144 141 137 134 133 131 123 113 104 94 81 112 106 109 135 135 132 124 121 123 111 105
143 161 166 148 155 166 178 192 205 201 206 200 193 187 185 187 175 150 148 145 137 130 129 126 136 132 125 119 125 122 110 101 99 102 141 128 131 125 120 123 121 113 117